| time (UTC) | temp C | wind direction | speed KPH | gust KPH | rain 1hr cm | rain 24hr cm | rain mn cm | humidity % | barometer mb |
| 20260507214520 | 15 | 151 | 6.4 | 14.5 | 0.00 | 0.00 | 0.15 | 48 | 1009.1 |
| 20260507213515 | 16 | 160 | 6.4 | 11.3 | 0.00 | 0.00 | 0.15 | 48 | 1009.2 |
| 20260507212530 | 16 | 166 | 6.4 | 14.5 | 0.00 | 0.00 | 0.15 | 47 | 1009.4 |
| 20260507211526 | 16 | 179 | 6.4 | 9.7 | 0.00 | 0.00 | 0.15 | 48 | 1009.3 |
| 20260507210522 | 16 | 180 | 4.8 | 12.9 | 0.00 | 0.00 | 0.15 | 48 | 1009.2 |
| 20260507205517 | 15 | 158 | 4.8 | 11.3 | 0.00 | 0.00 | 0.15 | 49 | 1009.3 |
| 20260507204533 | 15 | 152 | 8.0 | 16.1 | 0.00 | 0.00 | 0.15 | 51 | 1009.3 |
| 20260507203548 | 16 | 172 | 6.4 | 17.7 | 0.00 | 0.00 | 0.15 | 47 | 1009.2 |
| 20260507202523 | 16 | 237 | 6.4 | 17.7 | 0.00 | 0.00 | 0.15 | 46 | 1009.2 |
| 20260507201519 | 15 | 200 | 4.8 | 14.5 | 0.00 | 0.00 | 0.15 | 47 | 1009.4 |
| 20260507200614 | 16 | 170 | 6.4 | 17.7 | 0.00 | 0.00 | 0.15 | 46 | 1009.3 |
| 20260507195529 | 15 | 166 | 6.4 | 11.3 | 0.00 | 0.00 | 0.15 | 47 | 1009.2 |
| 20260507194525 | 16 | 166 | 4.8 | 12.9 | 0.00 | 0.00 | 0.15 | 46 | 1009.3 |
| 20260507193520 | 16 | 158 | 6.4 | 14.5 | 0.00 | 0.00 | 0.15 | 48 | 1009.5 |
| 20260507192516 | 15 | 162 | 8.0 | 17.7 | 0.00 | 0.00 | 0.15 | 47 | 1009.7 |
| 20260507191531 | 16 | 164 | 6.4 | 14.5 | 0.00 | 0.00 | 0.15 | 46 | 1009.8 |
| 20260507190526 | 16 | 170 | 4.8 | 12.9 | 0.00 | 0.00 | 0.15 | 45 | 1009.9 |
| 20260507185542 | 15 | 206 | 3.2 | 6.4 | 0.00 | 0.00 | 0.15 | 44 | 1010.2 |
| 20260507184517 | 16 | 253 | 3.2 | 8.0 | 0.00 | 0.00 | 0.15 | 47 | 1010.0 |
| 20260507183532 | 15 | 200 | 3.2 | 9.7 | 0.00 | 0.00 | 0.15 | 44 | 1010.2 |
| 20260507182547 | 16 | 185 | 3.2 | 8.0 | 0.00 | 0.00 | 0.15 | 43 | 1010.5 |
| 20260507181523 | 15 | 168 | 1.6 | 6.4 | 0.00 | 0.00 | 0.15 | 42 | 1010.4 |
| 20260507180518 | 16 | 186 | 4.8 | 6.4 | 0.00 | 0.00 | 0.15 | 41 | 1010.7 |
| 20260507175534 | 15 | 237 | 3.2 | 6.4 | 0.00 | 0.00 | 0.15 | 42 | 1010.7 |
| 20260507174529 | 15 | 189 | 3.2 | 8.0 | 0.00 | 0.00 | 0.15 | 42 | 1010.7 |
| 20260507173524 | 15 | 336 | 3.2 | 8.0 | 0.00 | 0.00 | 0.15 | 41 | 1011.0 |